Theta_e
309 309 309 309 309 309 309 309 309 309 309 309 309 309 309 309 310 310 310 310 311 310 311 311 311 311 311 311 311 311 311 312 313 314 314 314 314 314 314 314 313 313 313 313 313 314 313 313 313 313 314 314 314 315 316 316 315 317 326 327 315 315 316 317 322 318 315 318 315 313 313 314 315 315 315 315 314 314 315 315 315 314 314 313 313 313 313 314
310 310 309 309 309 309 309 309 309 309 309 309 309 309 310 310 310 310 310 311 311 310 311 310 310 311 311 311 311 311 312 313 314 314 314 314 314 314 314 314 314 315 314 314 314 314 313 313 313 313 313 313 315 315 315 316 315 318 325 323 317 320 316 313 317 314 313 316 314 314 313 313 315 314 314 315 315 314 314 314 314 314 313 313 313 313 313 314
310 310 310 309 309 309 310 309 309 309 309 309 309 309 309 309 310 310 310 310 310 310 310 310 311 311 311 311 311 312 313 314 314 314 314 314 314 314 314 315 315 315 315 315 314 314 314 313 313 313 313 313 314 315 314 316 315 315 319 323 324 320 313 311 314 314 314 314 313 314 313 313 314 314 314 314 314 313 313 314 313 314 314 313 313 313 313 313
311 311 310 310 309 309 309 309 309 309 309 309 309 310 310 309 310 310 310 310 310 310 310 310 311 310 311 311 312 313 313 314 315 314 314 314 314 314 315 315 315 315 316 315 315 314 313 314 313 313 314 314 314 314 314 315 315 314 318 323 320 312 313 315 314 315 315 314 313 313 313 314 314 313 314 313 314 314 312 312 312 313 313 313 313 313 313 313
312 311 311 310 310 309 309 309 309 309 309 310 310 310 310 310 310 310 310 310 310 310 310 310 311 311 311 311 312 313 314 316 316 313 313 314 314 314 315 315 315 315 315 315 314 314 313 313 314 314 314 313 314 314 314 314 315 316 316 316 314 311 315 316 314 315 315 314 314 312 313 314 313 313 313 313 314 314 311 311 311 312 312 312 312 312 313 313
312 312 311 311 310 310 309 309 309 309 309 309 310 310 310 310 310 310 310 310 310 310 310 310 311 311 312 312 313 314 314 316 315 313 314 314 313 313 314 314 315 315 315 316 314 314 314 313 313 314 313 313 313 313 314 315 315 317 316 312 313 313 315 316 314 315 314 313 313 312 313 312 311 312 312 312 312 312 310 311 311 311 311 311 312 312 313 313
311 312 311 311 311 311 310 309 309 309 309 309 309 309 310 310 310 310 310 310 310 310 311 311 311 311 312 313 314 315 316 316 314 314 314 314 314 314 314 314 314 315 316 316 314 314 314 313 314 313 313 312 312 312 313 314 314 318 318 313 313 313 313 315 313 313 312 313 313 312 312 311 311 312 312 310 310 310 310 310 310 311 311 311 312 312 313 313
311 311 311 311 311 311 310 310 309 309 309 309 309 309 309 309 309 310 310 310 310 310 311 311 312 312 314 315 316 317 318 317 317 317 317 316 317 316 315 314 314 315 316 316 314 313 313 313 313 313 313 312 312 312 312 313 314 317 318 314 313 313 313 313 312 313 313 312 313 312 310 310 311 312 310 308 308 309 309 310 310 310 310 311 312 312 312 312
310 310 310 311 311 311 311 310 310 309 309 309 309 309 309 309 309 309 310 310 310 310 311 312 313 314 316 317 317 319 319 318 319 319 319 319 319 318 317 315 315 315 316 316 314 313 314 313 313 313 313 312 312 312 311 314 315 314 314 313 312 313 313 313 313 313 312 313 312 311 311 310 310 311 309 307 308 308 308 310 310 310 311 311 311 311 312 311
309 309 309 310 310 311 311 311 310 309 309 309 309 309 309 309 309 309 310 310 311 311 313 314 316 317 318 318 317 318 319 319 320 320 320 320 320 319 318 317 316 316 316 316 314 313 313 313 314 313 313 313 313 312 311 314 314 312 312 312 312 312 312 313 313 312 312 312 311 312 311 309 309 311 310 307 307 308 309 310 310 310 311 312 312 311 311 311
308 309 309 309 309 310 310 311 310 310 309 309 309 309 309 309 309 310 310 311 312 314 315 317 318 318 318 318 317 317 318 319 319 319 320 320 320 320 319 318 318 318 317 316 314 314 313 313 314 314 314 314 313 312 312 312 312 312 311 313 313 311 312 312 311 311 312 312 311 310 310 309 310 311 309 306 308 309 309 310 310 311 311 311 311 311 310 310
308 308 308 308 308 309 309 310 309 309 309 309 309 309 309 309 310 310 312 313 315 316 318 318 319 318 318 317 317 317 318 318 318 318 318 318 319 319 319 319 319 318 317 315 314 314 313 313 314 314 314 314 314 313 313 312 311 312 311 315 316 314 315 312 309 309 311 313 311 310 313 314 312 310 307 307 308 309 309 311 310 310 310 310 310 310 310 310
308 307 307 307 307 308 308 308 308 308 308 308 308 308 309 310 311 313 315 316 317 318 318 319 318 318 317 317 317 318 318 317 318 317 317 317 317 318 318 317 318 318 316 315 315 315 314 314 313 315 314 314 314 313 313 311 310 313 310 312 316 317 319 312 308 310 310 311 310 311 319 320 311 306 306 307 308 309 310 311 310 309 309 309 309 309 309 309
307 307 307 307 306 307 307 307 307 307 308 308 309 309 311 313 314 316 317 317 318 318 318 318 317 317 317 317 318 317 318 318 318 317 317 317 316 316 316 316 317 317 316 315 316 316 316 315 314 315 314 314 313 312 315 312 313 315 310 314 318 316 323 317 308 310 312 311 310 311 320 320 310 306 307 308 308 308 309 309 307 307 307 308 308 308 309 308
307 307 307 306 306 306 306 307 307 307 308 309 311 312 314 316 316 317 317 317 317 317 317 317 317 317 316 317 317 317 317 317 317 317 317 316 316 316 316 316 316 315 315 315 316 317 317 316 315 315 313 313 314 315 320 318 320 320 314 322 322 315 324 322 308 308 312 311 309 312 320 319 310 306 308 308 307 308 308 306 305 306 306 307 307 307 308 307
307 307 307 306 306 306 307 307 308 309 310 312 314 315 317 317 316 316 316 316 316 316 316 316 316 316 316 316 317 317 317 317 317 317 316 316 316 316 316 315 315 315 316 315 316 316 316 316 314 313 312 313 316 322 326 321 323 322 316 322 325 316 319 319 310 307 308 309 310 312 317 319 310 304 307 307 306 308 307 304 304 305 306 306 306 306 306 306
307 307 306 307 307 307 308 308 310 311 313 315 316 317 316 316 315 315 315 315 316 316 315 316 316 316 317 316 316 316 317 317 316 316 316 316 315 315 315 315 315 315 316 316 316 315 316 315 314 313 312 311 314 323 326 322 325 324 315 317 322 318 315 318 317 310 307 310 312 312 314 316 310 303 305 306 306 307 305 303 303 304 304 305 305 305 305 305
307 307 307 307 307 308 309 310 312 313 315 317 317 316 315 314 315 315 315 315 315 315 316 316 316 318 319 317 316 317 317 317 316 316 316 315 315 315 315 315 315 315 315 315 315 315 315 313 313 316 315 311 313 320 323 323 328 329 321 318 320 317 315 317 318 312 310 314 316 314 315 315 312 306 304 304 305 306 304 302 302 302 303 304 304 304 304 305
307 307 307 308 309 310 311 313 314 315 317 317 316 314 314 314 314 314 315 315 316 317 319 317 316 320 320 317 316 317 317 317 316 316 316 316 315 315 315 315 315 315 314 315 315 313 313 312 314 317 316 314 314 316 320 321 323 327 326 325 324 320 317 317 317 312 309 314 317 315 317 316 314 312 305 302 303 304 302 301 301 302 302 303 303 304 304 304
307 307 308 310 311 312 313 314 315 316 316 315 314 313 314 315 316 317 316 315 316 317 318 318 317 318 318 317 317 317 316 316 316 316 316 316 315 315 315 314 314 314 313 317 316 311 311 316 317 318 317 316 314 313 316 319 318 320 323 324 323 321 318 316 316 311 306 313 319 315 316 316 314 314 305 301 303 302 301 301 301 301 301 302 303 303 304 304
307 308 309 311 313 314 314 315 315 316 315 313 313 314 315 316 317 319 318 317 317 317 317 317 317 317 317 317 317 316 316 316 315 316 316 316 316 315 314 313 314 314 311 312 312 310 312 317 318 317 315 314 313 312 313 316 315 316 319 319 319 319 318 314 313 312 307 312 318 313 314 316 315 314 304 301 303 301 300 300 299 300 300 301 302 302 303 303
309 309 310 313 314 315 315 315 315 314 313 312 313 314 315 316 317 317 318 318 318 318 318 318 318 318 317 317 317 316 316 316 316 316 316 316 316 315 313 313 315 316 311 309 312 313 314 317 316 312 310 311 312 311 311 313 312 315 317 316 316 316 316 316 312 311 309 311 317 315 313 315 316 309 302 300 301 300 299 299 298 299 299 300 301 301 302 303
310 311 314 316 315 314 314 313 314 313 312 313 313 313 314 316 317 317 318 320 320 319 318 319 319 319 319 318 317 316 315 316 317 316 315 315 315 314 312 312 316 317 314 313 316 316 317 318 314 308 308 312 315 312 311 312 311 314 316 315 315 314 316 320 315 312 311 310 315 315 313 315 314 306 301 299 298 298 298 298 298 298 299 299 299 300 301 302
313 314 317 319 317 314 313 313 314 314 313 313 313 313 314 315 317 318 319 320 322 321 318 319 319 319 320 319 318 317 316 317 317 316 316 315 314 313 312 312 315 317 313 313 315 316 319 317 308 306 310 314 316 313 313 313 313 315 315 313 314 315 317 320 316 313 314 311 311 312 315 320 317 311 306 300 298 298 297 297 298 298 298 299 299 300 300 302
317 319 318 319 318 314 313 314 315 314 313 313 313 314 315 316 317 319 319 322 324 321 318 319 319 320 320 319 319 318 316 316 316 317 316 315 315 313 312 311 313 316 314 313 313 314 317 312 308 312 314 313 315 316 316 316 316 317 318 314 313 316 317 318 315 314 317 318 313 312 319 326 323 318 311 302 299 300 298 297 297 298 298 298 299 299 300 301
320 321 318 317 317 314 314 315 314 313 314 314 313 315 315 317 319 319 319 325 327 321 319 319 320 320 320 319 319 317 318 318 316 317 316 315 315 314 313 312 312 315 314 313 313 315 316 310 311 319 318 314 315 316 316 315 316 319 319 315 313 313 316 317 316 316 321 321 312 309 317 325 326 323 312 302 302 301 298 298 297 297 298 298 299 300 300 301
320 320 318 317 316 314 315 316 315 314 315 314 314 316 317 318 319 317 319 326 326 321 320 320 318 319 318 317 317 318 323 320 315 315 315 315 314 313 316 315 312 313 310 312 317 317 315 312 313 317 318 317 316 317 316 313 318 322 316 314 315 314 316 318 317 318 321 319 314 312 315 318 322 321 310 302 305 303 300 299 298 297 298 298 299 299 300 300
319 319 318 317 316 315 314 316 316 315 315 316 315 316 319 319 318 317 323 330 326 319 320 318 315 316 317 316 317 317 318 317 317 316 313 314 314 312 316 315 316 316 309 313 322 316 312 317 317 315 317 317 316 320 317 313 320 321 311 311 315 314 316 318 317 317 315 314 318 319 314 315 321 320 310 303 308 309 304 302 299 297 298 299 299 299 299 300
318 318 318 317 317 317 314 315 317 316 315 318 317 318 320 319 318 320 324 328 324 318 318 317 314 314 315 315 315 313 312 313 316 315 312 313 313 312 315 313 312 314 309 311 322 317 311 313 314 315 319 318 317 316 312 314 319 312 306 310 313 312 314 315 315 316 313 313 320 321 315 316 322 324 316 310 313 314 307 302 300 298 298 299 299 299 299 300
319 318 317 316 317 317 315 315 316 317 317 318 319 319 319 319 320 324 326 327 325 319 314 314 314 313 314 316 315 311 310 311 312 312 311 312 312 311 313 312 310 314 314 312 318 316 308 307 308 313 316 314 312 309 305 309 311 306 310 315 315 316 316 316 316 316 315 318 321 318 315 315 319 323 320 314 315 315 309 305 300 297 298 299 300 299 299 300
319 318 316 316 317 317 316 315 315 317 319 320 321 319 319 321 323 327 327 324 323 319 313 314 313 312 315 318 318 312 310 310 309 312 313 311 312 311 312 313 313 318 319 316 317 313 308 309 310 310 309 307 309 308 304 304 303 307 319 320 317 320 317 317 319 316 317 323 319 312 311 313 317 322 321 315 313 311 309 307 302 298 298 299 300 299 299 300
317 316 315 315 316 316 316 315 315 318 320 321 321 319 321 323 324 327 326 322 324 322 317 317 313 314 316 318 318 313 312 312 309 312 315 313 313 313 314 317 318 322 323 318 318 315 313 315 311 308 307 307 314 315 308 305 305 312 321 319 320 322 318 319 321 317 318 320 313 308 311 312 314 320 320 316 314 309 304 304 301 298 299 299 299 299 299 300
316 315 315 315 316 316 315 315 316 319 321 321 319 318 322 325 325 326 324 323 324 319 316 317 314 315 316 317 316 311 312 314 311 311 312 312 314 313 314 316 315 323 326 318 317 317 318 316 311 310 310 309 315 317 315 313 311 312 317 318 322 323 322 326 322 316 318 316 309 307 311 313 314 316 316 313 309 303 299 300 300 299 300 300 300 299 299 300
316 315 315 314 315 315 315 316 317 320 321 320 318 319 323 325 325 325 325 324 322 316 315 315 314 314 316 317 316 312 314 315 311 312 312 312 315 315 316 314 311 319 324 317 316 318 322 321 315 314 313 311 313 314 317 317 311 312 315 316 320 323 326 327 323 323 323 317 310 308 312 319 320 315 308 303 300 298 299 300 300 299 300 300 300 299 299 300
316 316 316 315 315 315 316 317 318 320 321 319 318 321 324 325 325 327 326 323 322 319 314 313 315 316 316 316 314 312 315 316 311 313 313 313 316 316 316 314 311 317 321 319 319 316 318 323 317 310 308 310 312 310 311 314 313 311 312 314 318 321 323 319 316 318 318 316 313 311 314 319 316 310 301 297 297 297 298 299 299 299 298 299 299 299 299 300
319 317 317 316 315 314 316 319 318 319 320 318 319 322 323 324 325 327 325 322 322 317 313 315 317 317 317 316 314 311 312 314 313 313 314 313 315 315 316 316 312 313 317 320 321 316 317 321 314 307 307 308 309 308 307 312 316 312 311 317 316 314 319 319 312 308 309 315 317 313 316 315 311 311 305 300 302 301 298 297 298 299 298 298 299 299 299 300
320 319 317 317 315 314 316 319 318 318 319 319 320 322 322 323 324 326 324 320 317 314 315 319 319 318 318 317 316 313 312 314 313 314 315 313 315 315 314 316 312 311 314 317 319 319 322 322 312 309 312 307 303 306 306 305 311 315 315 317 313 309 316 320 316 314 314 318 318 314 315 316 315 316 311 305 307 307 301 297 296 297 297 298 298 299 300 300
320 319 318 317 316 314 314 317 319 319 319 319 321 322 321 322 321 320 320 316 314 315 319 322 320 319 319 319 318 314 313 316 313 313 315 314 316 316 314 315 313 310 311 312 315 318 319 321 314 308 311 308 303 309 311 305 306 312 313 312 313 316 319 317 317 320 320 320 321 315 312 314 315 317 314 310 312 311 304 298 296 296 296 297 298 299 299 300
320 319 318 317 317 315 313 315 319 320 319 319 322 322 322 322 319 317 317 315 314 317 320 322 321 319 318 318 319 314 312 315 313 313 316 315 316 314 312 315 314 310 309 310 314 316 315 319 318 309 308 309 307 311 315 312 307 307 309 308 311 316 318 317 316 318 319 321 322 317 315 317 316 315 317 314 311 309 306 301 298 296 296 297 298 299 300 300
319 318 318 317 317 316 313 315 318 318 318 320 321 321 321 322 319 318 317 316 316 318 320 323 323 321 319 316 317 315 313 314 312 313 316 315 315 314 311 313 314 311 309 309 312 315 313 316 319 312 307 310 313 313 314 314 310 309 311 311 312 313 314 316 314 314 318 322 323 320 318 318 315 313 314 312 310 307 306 305 300 296 297 298 298 299 300 300
318 317 318 318 318 316 314 316 317 317 319 320 321 321 320 320 319 319 317 316 317 318 319 324 324 322 320 316 317 317 315 314 312 313 316 314 315 317 313 311 312 311 310 309 312 315 315 316 319 315 310 312 317 312 309 311 312 312 312 312 313 313 314 316 315 313 314 317 319 319 318 317 315 310 309 310 309 305 302 302 300 297 298 299 299 300 300 301
318 318 318 317 318 317 315 317 318 317 318 320 319 319 318 319 319 319 317 316 318 319 318 322 324 323 321 318 318 318 316 316 314 313 316 314 314 318 313 309 309 309 311 313 313 313 315 318 320 317 313 313 313 307 303 307 311 312 312 313 314 313 314 318 318 315 314 313 313 314 317 317 311 305 305 306 303 300 299 299 299 298 299 299 299 299 299 300
317 317 317 317 317 316 316 318 318 317 318 318 318 318 318 319 319 318 318 317 318 319 319 320 321 322 322 320 319 318 316 317 315 313 317 317 314 314 311 308 309 309 311 314 313 311 313 317 318 316 315 312 310 308 305 306 309 312 313 313 313 312 314 317 316 315 316 315 313 313 316 316 308 300 299 299 298 298 299 299 299 299 299 298 298 298 298 299
316 315 315 316 317 316 316 317 317 316 316 317 317 317 317 318 318 318 319 318 318 319 320 321 319 320 322 321 321 319 317 318 317 314 317 319 315 311 309 308 309 311 312 314 314 312 314 317 318 318 318 316 314 313 311 310 311 314 316 314 312 312 314 314 313 314 316 315 315 316 317 317 312 304 301 300 299 298 298 299 300 299 299 299 300 300 299 298
316 314 313 315 316 316 316 316 315 314 314 316 316 316 317 317 317 318 318 317 317 318 320 320 319 319 321 320 319 319 317 319 321 317 316 318 315 309 308 308 309 311 312 312 313 312 316 319 317 318 319 319 319 318 316 315 312 312 315 313 312 312 313 313 314 314 315 315 315 316 316 316 313 308 308 306 304 304 301 299 299 299 300 302 303 301 299 299
315 314 312 313 315 314 314 314 314 314 314 315 315 315 316 317 317 317 318 318 318 317 318 319 318 318 320 318 318 318 317 317 320 318 316 318 316 309 307 308 309 309 310 311 311 312 318 319 316 317 319 319 321 320 317 318 316 314 314 314 312 311 311 313 315 315 315 315 315 314 315 316 314 311 311 310 309 311 306 298 298 300 301 303 302 301 299 299
315 314 311 312 313 312 312 312 313 315 315 315 315 315 316 317 317 317 317 318 318 317 317 317 318 319 320 318 319 319 318 316 318 318 316 316 315 309 306 308 309 309 310 310 309 313 319 318 315 317 317 318 322 319 314 316 318 316 315 314 313 311 310 312 314 314 316 316 316 315 315 316 316 313 313 313 312 312 305 298 299 302 302 302 301 300 299 299
314 313 310 311 313 312 312 312 312 314 315 315 316 316 316 316 317 318 317 316 316 317 318 317 317 319 319 319 320 320 319 318 317 317 317 315 314 311 309 309 308 308 310 311 309 312 318 318 316 316 315 316 319 316 312 315 317 316 316 315 313 310 310 311 311 313 316 315 315 316 315 315 315 313 315 314 310 308 305 302 303 303 302 301 300 299 299 299
310 310 310 311 311 311 311 311 311 313 315 315 315 316 316 316 317 317 316 316 316 316 318 319 318 318 318 319 320 320 318 318 318 316 315 315 314 313 312 312 309 306 308 311 311 310 315 318 316 315 316 316 315 314 313 314 315 315 315 315 314 311 310 311 311 311 313 314 314 314 314 313 313 314 313 309 305 304 303 303 302 301 301 301 300 300 300 299
309 309 309 309 309 308 308 310 311 313 313 314 314 315 315 315 317 317 315 315 317 316 317 319 318 317 317 317 319 319 317 318 318 316 315 315 314 314 314 314 311 306 306 311 312 310 313 316 313 313 315 315 312 311 312 312 312 313 314 313 313 311 310 311 311 311 311 311 312 311 311 311 310 309 308 305 303 304 303 301 301 301 301 301 301 301 301 300
307 308 308 308 308 307 307 309 310 312 312 311 312 313 313 313 315 316 313 311 314 316 316 317 317 316 316 316 318 318 315 315 316 314 313 314 313 313 313 312 310 308 308 309 310 310 311 312 311 312 316 315 310 309 310 308 308 310 312 311 310 310 312 311 309 310 311 311 311 310 310 311 308 305 303 302 302 301 302 302 302 302 302 302 301 302 302 302
305 306 306 307 308 306 305 307 308 310 311 310 310 310 311 312 312 314 313 310 310 312 312 312 314 315 314 314 316 314 312 311 311 311 310 311 310 310 311 310 309 310 310 308 308 309 309 310 311 312 316 314 306 306 308 308 310 312 312 312 311 310 309 309 307 308 309 310 311 311 310 311 309 305 304 304 301 299 301 303 303 303 303 303 303 303 303 303
Wind_Speed
4 4 4 4 3 3 3 3 3 3 3 3 3 4 3 4 4 4 4 4 4 5 5 6 7 7 8 9 9 9 9 10 11 12 12 11 9 4 4 5 3 2 2 2 2 1 1 2 3 4 4 3 4 5 5 5 5 3 3 3 2 2 2 5 6 6 4 2 3 1 4 2 1 4 7 7 4 3 6 7 4 2 1 5 9 11 12 11
6 6 6 5 5 5 4 4 4 4 4 4 4 5 4 4 5 5 5 5 6 6 6 6 7 8 9 9 9 10 10 11 13 12 11 7 2 4 7 6 4 2 2 2 1 2 2 2 3 3 4 2 4 5 4 4 5 3 3 3 1 5 3 5 7 6 5 1 4 4 4 2 2 5 6 4 7 8 7 5 3 2 5 7 8 7 7 7
8 8 8 7 7 6 6 6 6 6 6 6 6 6 5 5 5 6 6 6 7 7 7 7 8 9 10 10 10 10 11 13 12 8 3 4 8 10 9 6 4 4 4 3 3 2 2 2 2 3 3 3 4 4 4 4 4 2 3 2 3 5 3 4 6 5 5 4 5 4 3 4 4 4 2 2 9 8 3 2 3 8 12 9 7 6 4 3
11 10 10 9 9 8 8 8 7 8 8 8 7 7 6 6 7 7 7 8 8 8 8 9 9 10 10 10 10 11 12 12 6 2 6 10 10 9 6 4 4 5 5 5 4 2 2 2 2 2 2 3 4 3 4 5 3 1 3 3 4 3 1 3 3 3 5 6 5 4 5 6 3 1 1 1 5 4 2 1 4 11 12 7 5 5 6 5
12 12 12 11 11 10 10 10 10 9 9 9 9 8 8 8 8 9 9 9 9 9 10 10 10 10 11 11 11 11 11 7 2 7 8 8 6 3 2 3 3 6 7 6 5 3 2 2 1 1 2 2 4 4 2 4 3 1 1 3 4 4 1 2 1 2 4 5 6 5 4 4 3 3 3 2 3 3 4 6 7 9 8 3 3 3 4 5
14 14 13 13 12 12 11 11 11 11 11 11 10 9 9 9 10 10 10 11 11 11 11 10 10 11 11 11 12 12 8 2 2 4 5 3 1 3 3 3 4 6 7 7 6 3 3 2 1 1 2 2 2 3 2 3 3 0 1 1 2 4 3 3 2 4 6 6 7 6 5 4 4 5 5 4 4 5 7 7 5 4 3 1 2 1 3 4
16 16 15 15 14 13 13 13 13 12 12 12 11 11 11 11 11 11 12 12 12 12 11 11 11 11 12 13 13 12 9 7 6 6 7 7 7 8 8 7 7 7 8 7 6 4 4 3 2 2 3 2 1 3 3 2 3 2 1 2 1 4 5 4 6 9 10 11 11 10 9 6 4 4 3 1 1 4 4 2 1 4 3 2 1 1 3 5
17 17 17 16 15 15 14 14 14 13 13 13 12 12 12 12 12 12 13 13 13 12 12 12 12 12 13 14 12 11 11 11 9 10 12 12 12 12 11 11 10 9 8 6 5 4 4 3 3 2 2 1 1 2 3 1 1 3 1 3 2 5 7 8 11 13 13 13 12 12 9 5 4 4 1 2 2 2 3 4 5 6 5 3 2 1 3 5
19 19 18 17 17 16 16 16 15 14 14 14 14 13 13 13 13 13 13 13 13 12 13 12 13 13 12 13 11 9 10 8 6 8 10 11 12 12 13 13 12 11 9 6 4 4 4 4 4 3 1 1 3 3 3 1 1 1 1 3 5 8 11 12 13 11 11 12 11 9 5 2 1 2 2 3 4 6 7 7 6 5 3 0 3 5 5 5
20 20 19 19 18 17 18 17 16 16 15 15 15 15 14 14 14 14 13 13 13 13 13 13 13 13 12 12 8 5 7 6 5 6 6 7 8 10 12 12 13 11 9 7 4 3 5 3 3 3 2 1 4 3 3 2 1 0 2 6 8 10 13 12 12 12 11 11 9 7 3 2 1 3 3 2 6 8 7 6 5 3 1 3 5 6 7 7
21 21 20 20 19 18 19 18 17 17 17 16 16 15 15 15 14 14 13 13 13 14 14 13 13 12 11 11 8 6 8 7 6 6 6 6 6 7 9 10 11 10 8 7 4 4 4 4 3 3 2 2 3 2 2 2 1 1 4 7 9 12 13 11 10 9 5 5 4 4 2 3 1 3 2 1 6 7 6 5 3 1 1 3 4 6 7 8
22 21 20 20 19 19 19 19 18 18 17 17 16 16 15 15 14 14 14 13 14 14 14 13 12 12 11 11 14 14 12 12 11 10 9 8 8 7 7 8 8 8 7 6 5 5 4 4 4 3 2 4 3 1 2 2 1 2 5 4 8 10 9 7 6 3 0 1 1 1 0 4 3 1 3 1 7 7 5 4 2 1 1 2 3 5 6 8
22 21 20 20 19 19 19 19 18 18 18 17 17 16 15 15 15 14 14 14 14 14 14 13 13 12 11 11 15 14 13 14 14 14 14 14 12 12 11 9 9 8 7 6 6 5 4 4 5 4 4 4 3 2 2 2 2 2 3 2 5 8 5 4 5 3 1 1 1 2 2 4 4 2 3 2 7 5 4 3 3 2 1 1 2 4 5 6
22 21 20 19 19 19 19 19 18 18 17 17 16 16 16 15 15 15 14 14 14 13 13 13 12 12 10 11 14 14 14 14 14 14 15 15 15 14 13 10 9 8 7 7 6 5 4 4 5 5 4 3 4 4 2 4 3 1 1 2 2 2 5 5 5 4 2 1 2 3 1 3 4 3 3 3 8 7 5 4 3 3 2 1 2 3 5 5
22 20 19 19 19 19 19 18 18 18 17 16 16 16 15 15 15 15 14 14 14 13 13 12 11 10 9 11 13 13 14 15 16 16 14 14 13 11 10 9 9 9 8 8 6 5 4 5 5 4 5 5 6 5 2 4 4 2 1 3 2 1 5 7 5 3 1 1 2 4 2 3 4 3 5 1 7 7 5 5 5 4 4 2 2 3 3 4
22 20 19 19 19 19 19 18 18 17 16 16 15 15 15 15 15 14 14 14 13 13 12 11 11 9 6 9 12 12 13 13 14 15 15 14 12 10 9 9 9 9 7 6 5 5 6 6 5 5 5 5 5 4 3 3 3 3 0 3 2 2 3 5 3 3 2 1 3 2 2 2 3 1 5 2 6 5 5 6 5 5 4 3 2 2 2 2
21 20 19 19 19 19 19 18 17 17 16 15 15 15 15 14 15 15 15 14 13 13 11 9 9 7 8 11 12 12 13 13 12 12 13 13 11 10 10 10 9 9 7 6 6 6 7 7 6 4 3 3 3 4 3 2 4 3 1 2 3 3 2 3 3 3 5 1 1 3 1 3 4 3 5 4 5 3 6 7 6 5 4 3 2 2 2 3
22 20 19 20 20 19 19 18 17 17 16 16 15 14 14 14 14 14 14 14 13 10 9 10 7 3 8 13 12 11 11 11 12 12 12 12 12 11 11 10 9 9 8 7 7 8 7 5 4 2 3 3 2 5 3 5 4 3 2 2 3 3 3 3 3 2 4 3 2 3 3 6 3 4 7 6 4 3 7 7 6 5 4 4 3 3 3 4
22 20 20 20 20 20 19 19 18 17 17 16 15 14 13 13 13 14 15 14 12 7 5 8 10 4 4 7 9 9 10 9 11 12 12 12 12 12 11 9 9 10 10 6 4 7 6 4 4 1 1 3 6 7 8 7 5 6 5 4 3 3 4 4 4 3 2 2 4 3 5 8 5 1 5 6 5 5 7 6 5 5 4 4 4 3 4 5
22 21 20 20 20 20 19 19 19 18 17 15 15 13 11 9 7 9 13 16 17 16 13 12 12 11 8 6 7 7 8 9 10 11 12 12 12 12 11 10 9 8 6 5 3 5 5 3 3 6 6 8 10 9 7 4 6 6 5 4 4 4 4 4 3 4 1 1 5 4 5 9 7 2 3 2 3 6 6 5 5 4 4 4 5 5 6 8
23 22 22 20 20 20 20 20 19 19 18 16 15 12 9 7 4 4 7 11 16 18 20 20 18 17 16 12 9 7 8 8 9 11 12 12 13 11 11 10 7 4 2 4 5 3 4 5 8 8 7 8 8 7 5 4 5 5 4 3 3 4 5 4 1 3 1 2 3 1 2 9 7 2 4 2 2 4 3 3 4 5 6 6 7 8 9 10
24 23 21 19 20 20 20 20 20 20 18 17 17 15 11 9 8 7 7 8 14 17 18 20 22 23 23 18 14 11 10 8 8 12 13 15 16 12 11 9 5 3 2 5 6 3 2 6 10 6 7 6 3 5 6 4 3 3 3 3 3 3 3 4 2 3 2 2 3 1 1 8 6 1 3 3 2 3 2 4 5 6 7 8 8 9 11 12
24 21 17 18 20 20 20 20 20 20 19 19 19 17 15 11 9 9 8 7 13 19 20 21 24 26 26 24 20 17 13 10 10 14 16 18 18 14 12 9 4 4 4 4 6 5 3 7 8 8 11 8 4 4 6 4 2 3 3 3 4 2 1 3 3 3 2 0 2 0 2 6 2 1 2 2 4 5 5 5 6 7 7 8 9 10 12 15
22 19 16 18 20 19 19 19 19 20 20 20 19 17 15 12 9 8 8 6 8 12 18 21 22 25 27 24 20 20 19 15 12 14 19 22 19 12 11 9 6 4 5 7 8 6 5 5 3 9 8 7 5 4 6 5 2 3 5 6 5 3 5 6 2 2 2 3 0 2 3 5 2 3 2 1 4 5 5 6 7 7 9 10 10 12 14 17
20 20 19 20 21 18 17 18 20 22 22 21 18 15 13 10 6 4 3 3 6 6 10 15 17 20 24 21 18 19 17 16 15 15 19 24 21 12 7 9 6 5 6 6 6 5 7 4 6 8 4 5 7 3 5 7 3 3 5 10 10 7 7 5 1 3 2 3 2 2 2 5 2 2 3 2 2 2 3 5 7 8 10 11 12 15 17 19
21 23 21 20 20 17 16 18 22 23 22 20 16 13 12 9 5 2 1 2 5 3 4 9 10 10 15 16 18 16 7 9 15 17 19 23 23 13 6 6 4 3 6 7 3 3 3 2 5 6 5 6 5 4 6 7 5 2 4 8 10 7 5 4 3 2 1 3 2 2 3 4 5 4 2 2 2 2 2 3 6 9 11 13 15 17 19 21
23 24 21 19 19 18 20 21 22 22 19 16 14 13 11 9 8 4 3 3 6 5 7 7 8 8 10 14 21 16 2 4 11 15 20 23 22 15 7 5 3 2 5 6 1 2 3 3 3 5 6 5 5 4 6 7 7 3 3 5 7 7 7 6 6 4 3 2 2 2 2 2 4 4 2 1 2 2 3 3 5 10 13 15 17 18 20 22
26 26 24 22 20 21 24 22 20 20 16 11 12 14 12 13 11 6 4 2 4 5 6 5 8 10 12 17 22 13 4 8 8 9 20 23 20 12 7 7 7 4 5 6 4 3 3 5 6 7 5 4 5 4 8 11 5 4 2 6 6 6 6 5 5 3 1 1 3 3 1 1 4 4 2 1 2 6 6 6 8 13 16 17 19 20 21 23
28 27 28 26 22 22 24 23 19 17 15 10 12 15 16 16 11 6 3 3 2 4 3 6 9 8 13 17 14 6 5 4 2 8 17 18 17 8 3 7 8 6 2 2 4 3 1 3 6 8 5 5 4 1 7 10 4 4 6 7 6 5 5 4 4 3 2 0 5 5 4 3 4 4 2 1 3 7 6 6 9 16 19 20 22 23 23 24
28 28 28 27 26 25 25 26 22 16 15 15 15 18 20 16 8 4 3 4 2 3 3 7 6 7 13 12 3 2 4 1 5 13 12 10 11 6 5 7 7 6 2 4 0 2 0 1 2 4 4 6 5 3 2 4 5 9 7 6 6 5 4 3 2 3 2 2 6 6 5 4 3 4 4 4 4 5 6 5 7 14 20 24 25 25 25 25
30 30 29 28 31 30 28 32 28 19 18 18 19 24 21 9 4 3 7 2 1 2 5 4 2 7 12 8 3 4 3 2 7 12 7 4 7 5 7 6 3 4 2 4 2 3 2 1 2 3 5 7 8 5 5 4 6 7 4 4 4 3 3 3 3 3 1 5 5 3 2 3 4 4 4 5 4 4 7 8 10 15 22 28 28 26 26 26
31 31 29 30 33 32 32 35 29 22 21 22 26 27 16 3 1 8 7 3 1 4 4 4 3 6 8 3 3 5 3 2 5 7 4 3 5 5 5 5 5 3 2 5 2 2 1 3 2 2 5 7 6 5 4 4 2 4 4 6 4 2 2 2 3 1 3 5 3 2 1 3 5 6 7 6 5 5 6 8 15 23 28 30 30 28 27 28
31 30 29 30 32 34 35 33 28 26 24 26 29 21 8 3 9 12 9 2 2 3 4 4 3 4 7 4 2 3 3 2 5 3 2 3 4 5 4 2 6 3 1 5 3 1 2 4 2 3 3 8 9 6 3 1 2 4 5 6 4 2 1 3 3 2 4 4 2 2 1 2 4 5 6 6 4 5 5 5 14 27 32 33 32 30 29 29
31 30 30 31 33 35 35 32 31 27 27 30 25 11 4 8 11 8 10 8 1 2 3 4 5 5 6 4 3 5 3 2 5 4 2 4 4 5 5 5 5 3 4 3 3 5 3 4 5 5 3 10 11 6 6 6 5 4 3 5 4 4 4 4 4 3 4 2 2 3 2 4 4 2 3 4 3 3 5 5 10 20 27 30 31 31 30 31
31 30 31 31 33 37 37 35 34 29 30 31 17 5 8 13 9 5 8 7 2 2 3 4 6 6 4 2 2 5 4 2 5 5 3 5 5 6 5 6 7 4 5 4 2 3 3 5 5 1 2 10 10 5 7 8 4 2 2 4 3 4 4 2 3 4 2 1 2 2 3 4 4 2 2 3 3 3 5 6 9 16 22 26 30 32 33 33
32 31 33 34 36 40 41 38 35 34 36 29 11 7 13 12 6 4 5 5 5 6 6 3 3 5 3 2 2 5 3 1 5 4 3 3 3 5 4 5 9 9 7 6 3 2 2 4 4 3 2 3 5 5 4 3 3 2 2 4 4 3 6 4 2 1 3 2 4 3 3 3 1 2 2 2 2 3 3 4 9 16 21 26 31 35 36 36
38 36 37 39 39 40 45 42 36 40 40 24 10 11 11 9 7 5 4 6 9 11 9 4 4 6 6 4 4 7 3 1 4 4 3 3 3 7 6 5 10 14 12 6 2 3 4 2 3 1 1 1 2 6 6 4 4 5 4 5 3 2 4 3 2 2 2 3 4 2 4 3 2 2 2 2 3 6 4 4 7 14 21 27 33 38 38 37
43 40 41 45 42 40 48 46 38 44 37 15 11 16 10 8 9 6 6 7 9 11 8 8 7 6 7 6 4 8 6 4 6 4 4 3 4 8 10 6 9 18 20 10 1 2 4 1 4 1 2 1 2 5 5 4 3 4 4 3 4 3 1 2 2 2 2 3 4 2 2 3 4 5 3 5 9 9 6 5 6 13 23 30 34 38 38 37
44 38 38 48 47 41 46 49 46 45 28 6 10 16 8 7 7 7 12 10 6 9 9 9 7 3 6 8 5 7 9 7 8 6 5 4 4 8 12 8 7 17 24 15 4 2 4 3 3 1 1 1 1 2 4 2 1 3 2 2 2 2 4 3 2 2 3 3 3 3 2 3 5 6 9 13 14 11 9 7 9 17 27 33 36 40 42 41
44 29 24 41 48 42 45 52 46 33 14 6 12 10 4 5 5 9 19 14 4 6 7 6 8 5 5 6 4 5 7 7 9 7 4 6 5 5 10 9 5 9 15 13 5 1 3 3 3 1 2 1 2 4 7 8 5 3 3 4 2 1 2 1 1 2 3 3 2 3 4 4 4 4 9 11 10 10 12 11 12 21 30 34 38 42 44 45
41 19 14 30 39 42 49 43 29 15 6 9 13 10 5 4 3 9 18 15 6 4 4 4 6 6 5 6 4 4 6 6 8 7 4 7 6 4 9 13 10 9 8 6 6 4 3 3 4 2 1 4 4 4 3 6 7 6 6 7 7 5 4 2 4 1 2 2 3 2 5 5 3 2 4 5 4 7 13 14 14 23 32 36 38 42 45 47
33 13 12 24 30 43 47 25 12 12 8 10 12 8 6 4 3 7 12 12 6 2 3 2 2 4 4 5 4 5 7 5 7 8 4 7 8 3 5 11 16 19 12 5 5 5 4 3 4 3 4 4 4 3 1 2 3 4 4 5 6 5 5 5 7 3 2 1 2 2 4 5 2 2 3 4 3 5 12 16 17 21 29 34 36 38 41 44
25 14 14 23 31 45 39 12 8 13 9 12 13 8 7 5 4 7 8 9 6 2 3 3 1 4 4 3 4 5 7 6 7 9 3 3 6 1 1 10 17 17 10 3 3 4 3 3 4 1 2 2 3 2 2 3 2 2 3 3 5 5 5 4 4 3 3 4 3 2 5 4 2 2 2 4 5 5 10 17 19 19 23 28 32 34 37 40
18 12 15 27 39 46 31 9 10 13 10 13 11 10 13 8 6 10 8 8 7 3 4 4 3 4 3 2 5 6 8 6 6 8 4 2 5 2 3 12 15 11 6 3 5 9 7 3 5 4 0 2 2 2 1 1 2 4 3 3 6 6 5 2 1 3 2 6 7 4 8 5 1 2 3 2 2 4 8 14 18 18 19 24 29 33 36 38
13 5 10 30 47 42 25 13 14 12 11 14 11 12 14 8 8 15 12 9 9 6 4 4 5 6 4 3 4 4 8 6 3 4 3 2 3 2 4 10 11 6 5 5 7 13 9 3 6 8 7 8 6 5 5 4 2 2 2 4 7 9 9 5 2 3 5 5 8 7 9 4 1 3 4 3 1 3 8 11 15 18 19 21 26 31 35 38
13 5 4 18 32 27 16 15 16 11 11 14 10 10 15 10 7 14 16 13 14 12 6 2 5 6 3 6 6 5 8 5 1 3 4 4 2 1 3 8 7 4 4 5 8 12 4 2 8 11 10 10 7 4 4 6 6 5 6 8 9 10 12 7 3 5 6 3 5 9 6 3 5 5 5 5 3 4 6 8 14 19 21 22 25 28 33 37
9 8 5 7 12 11 8 9 12 10 11 14 8 5 15 14 5 8 14 13 15 17 7 1 6 9 7 9 8 6 7 5 2 4 5 4 2 2 2 5 5 4 1 2 6 6 2 3 9 10 9 5 4 3 5 7 8 9 9 11 11 9 11 10 9 8 6 5 9 8 6 3 11 6 6 7 6 5 6 10 17 21 22 23 23 25 30 34
4 6 10 12 7 4 7 10 12 11 12 13 8 4 12 15 9 9 10 5 8 16 9 1 7 13 12 13 9 6 7 6 5 6 5 3 3 2 2 2 2 4 2 1 3 2 2 4 4 4 6 3 4 4 3 5 5 6 8 11 11 11 12 14 15 11 8 8 13 5 7 9 12 5 7 10 9 9 12 15 18 18 19 22 22 24 28 32
4 3 9 14 7 2 7 10 10 11 11 10 8 7 11 15 14 9 5 3 4 10 10 9 10 12 12 12 9 7 9 8 8 8 6 5 5 4 3 1 1 2 2 2 2 2 2 3 2 4 6 4 4 4 3 5 3 3 6 11 11 11 13 15 16 13 9 11 10 1 5 12 8 5 9 10 9 10 11 13 13 14 16 19 20 23 26 29
6 4 6 10 5 1 5 7 7 9 8 6 6 7 9 12 13 8 3 4 5 5 9 13 11 11 11 10 10 10 11 10 7 8 9 8 6 5 4 4 3 2 3 2 1 2 3 3 3 5 4 4 4 4 3 5 5 5 11 15 9 7 9 13 13 7 5 9 8 4 8 11 6 6 8 7 7 8 9 11 11 12 14 16 18 22 24 26
8 6 7 8 3 2 4 3 5 6 5 5 5 5 7 11 11 7 2 1 2 3 7 9 8 7 6 8 10 8 6 6 5 6 9 8 6 6 4 4 6 6 4 3 2 2 3 2 2 3 4 3 3 5 5 3 2 5 17 17 9 7 8 9 7 6 8 10 9 8 10 8 5 7 7 6 8 10 11 13 12 13 15 16 18 19 20 21
7 6 6 6 3 4 3 2 2 5 4 4 5 3 4 6 6 7 4 1 4 6 6 5 4 4 3 6 8 4 8 11 11 8 6 5 5 5 4 6 9 7 5 4 2 1 3 3 2 3 4 1 2 4 6 5 2 8 15 11 12 12 8 4 4 8 11 10 8 8 9 5 4 7 7 6 7 10 13 15 15 16 17 18 19 17 15 15
Wind_Direction
267 267 267 262 259 256 248 242 238 235 230 226 226 225 231 234 242 257 263 273 283 289 300 305 310 311 311 314 315 319 321 323 323 320 318 314 309 290 196 162 136 111 74 67 86 23 345 358 356 5 14 31 40 52 66 53 43 46 100 79 66 169 176 171 186 186 159 264 255 21 21 69 26 332 339 326 302 307 321 334 7 88 39 313 300 296 297 294
266 266 266 266 264 262 259 255 252 251 248 243 241 241 245 252 260 269 273 279 285 289 297 300 303 304 307 311 313 318 320 322 320 316 319 318 306 142 138 127 105 61 24 13 355 330 330 334 343 6 12 43 56 52 67 48 43 69 109 79 193 199 203 187 186 188 175 275 285 318 348 33 336 312 339 333 302 326 340 354 72 70 332 318 312 312 303 298
261 263 264 266 265 264 262 260 259 258 257 253 252 253 253 262 267 272 275 277 282 285 291 295 297 301 305 309 313 321 323 322 322 323 345 99 118 119 117 102 74 35 8 350 327 312 301 308 342 7 18 59 66 55 64 45 39 87 98 82 234 218 225 217 206 215 226 278 296 311 314 315 322 296 326 317 306 333 19 21 18 332 328 331 341 4 11 359
259 261 263 264 265 264 263 263 263 260 261 259 259 261 262 265 268 269 273 275 279 284 288 292 294 299 302 307 314 320 326 326 330 76 115 120 117 114 101 76 50 20 3 352 323 286 266 277 333 5 39 65 53 50 54 34 34 135 106 145 208 185 216 253 229 261 272 280 287 291 301 318 347 317 297 317 315 339 74 23 337 320 317 325 353 27 39 35
263 262 261 262 263 263 263 263 262 262 262 263 263 265 266 266 267 268 272 274 278 282 285 290 293 298 301 306 311 315 332 345 70 116 125 128 125 124 79 40 13 2 359 351 323 273 246 254 293 32 63 62 45 49 45 37 65 125 106 165 170 149 197 326 40 311 300 290 289 286 301 319 337 322 289 260 279 297 313 314 313 306 297 310 19 45 35 25
266 265 263 262 262 261 262 262 261 262 262 264 264 264 265 265 269 269 271 274 277 281 283 287 290 294 297 301 304 308 323 327 179 136 148 169 224 269 293 305 322 341 343 339 324 274 236 241 232 90 68 62 61 72 80 62 72 76 282 196 179 189 231 296 311 312 310 295 291 287 289 291 304 312 291 265 258 277 299 306 303 278 245 175 55 38 10 11
269 267 265 263 263 262 261 261 260 260 261 263 263 264 264 265 267 268 270 272 275 277 280 284 287 290 294 297 299 302 294 270 262 242 242 255 262 270 278 282 291 311 322 324 313 269 230 225 191 126 85 68 100 108 94 75 87 108 266 307 295 242 256 282 294 304 301 291 292 289 283 285 297 291 291 329 253 274 284 287 194 187 178 158 177 325 358 5
271 269 267 265 263 262 260 260 260 260 261 262 263 264 264 265 265 266 269 270 273 276 279 282 285 288 292 295 297 298 286 279 272 256 255 258 258 263 266 271 279 294 304 304 302 265 226 215 197 149 88 63 149 124 99 70 77 112 244 303 318 283 288 295 296 298 296 294 297 290 277 284 295 260 296 53 184 200 167 157 142 151 157 166 183 28 20 6
273 271 268 265 264 263 261 260 260 259 260 260 261 263 264 266 265 266 267 269 273 276 279 283 285 288 290 290 294 296 287 285 275 259 256 255 254 254 256 262 268 279 285 280 289 256 221 202 202 197 207 174 142 117 111 128 302 175 222 302 297 294 301 301 296 294 291 292 293 286 281 350 323 213 58 47 160 155 153 161 147 155 183 55 14 15 15 9
272 271 269 265 262 261 261 259 259 259 258 259 260 262 263 264 265 266 268 270 274 277 281 283 284 285 284 284 283 279 277 277 275 266 259 256 251 248 251 256 261 269 272 262 264 248 218 199 193 188 200 146 128 118 129 128 337 279 326 310 292 298 306 301 292 290 286 285 281 266 271 42 154 157 88 82 144 149 162 167 154 175 267 359 360 356 1 2
270 269 267 264 261 259 259 257 257 256 257 258 258 260 261 262 264 266 268 271 275 278 281 280 281 280 279 277 251 236 267 271 269 267 260 263 258 250 251 254 259 261 256 247 241 234 220 211 181 169 195 150 129 129 166 156 35 1 343 313 300 316 313 303 296 292 283 284 287 237 229 49 97 137 89 158 160 166 183 174 160 202 345 3 352 353 355 354
268 267 264 262 260 257 257 255 254 254 254 255 256 258 258 260 261 264 268 271 274 276 277 277 277 275 274 271 254 253 268 267 263 262 256 261 261 254 254 257 260 255 246 239 228 217 209 206 192 187 180 147 143 86 145 145 47 2 16 325 310 338 329 321 335 320 94 323 347 140 297 17 8 38 50 93 158 167 193 184 184 228 6 8 356 355 356 355
266 264 262 261 258 256 255 253 252 251 252 252 254 255 256 258 260 264 267 269 271 272 274 274 274 274 272 267 264 264 266 263 262 261 257 257 258 256 258 260 256 247 234 223 211 198 187 196 201 195 164 147 156 139 127 92 51 331 38 30 322 349 329 332 7 339 352 343 151 116 307 314 306 319 48 131 166 180 222 197 187 183 120 24 9 359 359 358
261 260 259 258 255 254 252 251 250 249 249 250 252 253 255 258 261 265 266 268 269 269 271 272 272 272 265 262 269 269 263 262 260 258 258 257 256 255 254 252 245 233 220 211 203 199 193 192 200 187 162 146 139 134 94 31 41 338 16 33 1 360 283 308 355 341 8 24 169 143 262 261 244 300 9 194 205 221 228 176 161 152 125 90 41 8 353 354
257 256 256 255 252 251 249 248 246 246 247 248 251 255 258 262 264 266 266 266 267 268 269 269 270 269 265 265 268 267 262 259 257 255 255 255 253 248 239 233 225 216 211 211 210 212 203 191 189 162 139 136 127 115 29 1 21 24 334 312 344 157 270 310 351 13 67 12 65 127 226 275 214 279 2 172 204 213 190 144 134 127 111 100 55 15 352 360
253 254 253 252 250 248 247 245 243 244 246 249 253 257 261 264 265 266 267 267 268 268 267 267 265 259 262 269 263 261 259 254 254 252 249 248 244 233 221 217 214 211 212 215 213 203 190 178 161 131 131 135 122 97 44 2 341 3 78 250 273 192 277 319 342 20 43 192 24 75 230 292 170 209 12 125 186 188 150 124 115 109 98 95 65 34 20 35
249 250 250 250 248 246 244 242 241 242 246 249 253 258 261 263 264 265 265 266 266 265 265 261 259 259 258 260 257 255 253 249 248 246 243 238 230 221 214 211 210 212 207 194 187 177 173 161 144 136 110 100 107 98 67 320 285 312 22 231 250 212 219 302 294 349 23 85 6 18 275 255 170 113 41 106 169 170 125 112 106 101 93 89 74 65 75 94
247 246 246 245 245 244 242 241 241 241 245 247 251 254 257 259 261 262 263 263 262 263 267 246 230 275 262 245 243 247 248 243 239 237 232 225 219 215 214 213 212 202 176 162 170 163 161 141 123 124 43 52 120 116 158 229 213 189 176 199 253 241 223 253 258 295 8 16 348 6 295 268 206 95 47 77 134 143 115 108 107 100 92 90 81 81 88 102
246 245 243 242 241 241 240 240 239 241 243 243 247 249 252 257 260 262 259 253 242 233 252 227 201 195 242 234 237 244 246 236 229 229 223 217 212 208 206 199 192 178 155 145 168 159 152 108 91 159 186 186 189 173 196 204 158 161 168 154 185 228 246 234 237 264 351 4 303 269 261 272 256 80 37 63 102 119 116 110 103 95 93 98 98 103 108 115
243 243 240 238 238 238 238 238 239 240 241 240 240 241 245 250 259 266 254 244 242 241 245 241 224 224 240 258 252 237 230 224 223 219 214 210 202 193 182 170 162 160 152 148 169 160 147 141 193 217 201 194 202 195 189 150 117 127 129 134 184 218 258 237 233 294 3 131 272 256 256 274 270 293 349 29 103 98 97 98 97 105 113 117 125 130 129 126
240 239 236 235 236 237 235 235 236 236 236 235 231 229 227 221 221 272 263 256 258 254 252 252 247 242 245 254 253 235 214 208 210 207 203 197 187 178 171 162 142 145 180 127 121 119 127 181 228 224 192 188 197 183 154 117 113 111 128 174 226 222 249 254 230 318 350 172 268 347 303 274 265 288 341 348 88 69 74 110 122 136 136 134 137 135 132 125
239 238 235 234 235 236 233 231 232 232 231 229 225 223 221 221 231 257 282 284 273 264 255 248 245 245 244 243 240 228 206 195 201 199 195 186 182 181 172 159 141 158 168 112 106 85 129 224 241 205 143 132 110 143 161 161 138 109 118 168 244 228 252 288 303 342 14 179 258 12 264 266 265 331 3 27 81 86 128 164 155 151 145 143 140 135 134 129
241 239 234 238 239 235 231 228 227 228 227 225 226 224 224 229 238 258 277 287 279 268 255 245 242 242 240 236 233 222 207 208 211 200 195 187 183 185 173 156 137 140 153 170 159 146 177 248 244 169 140 126 87 114 141 137 150 158 148 174 236 218 191 275 289 330 359 41 256 201 274 269 252 15 3 65 119 116 125 153 152 153 149 142 141 136 135 134
244 240 229 234 241 234 228 227 225 228 227 224 227 225 226 233 236 264 277 274 280 266 252 246 242 241 238 234 230 220 215 222 221 203 199 192 179 176 178 164 132 140 188 194 175 177 218 254 180 137 140 147 132 119 137 151 216 230 201 204 223 202 207 233 265 326 344 3 6 148 310 292 213 206 240 137 143 128 127 145 144 151 153 146 145 143 138 135
240 243 232 227 235 232 225 226 224 227 227 224 226 221 221 227 227 262 287 286 282 263 249 239 233 237 234 229 224 215 216 225 226 213 203 196 184 168 170 170 156 186 195 166 156 211 251 234 137 116 109 145 145 163 182 171 191 273 227 212 216 208 210 226 347 23 9 333 304 145 261 288 301 239 212 174 179 161 151 157 152 156 158 157 154 149 144 139
233 241 236 226 228 222 212 223 228 228 228 226 219 207 211 209 184 200 72 13 282 233 195 210 210 221 217 211 202 190 208 234 222 215 202 197 195 179 158 160 154 195 170 140 149 222 245 189 136 127 127 141 154 213 221 166 141 278 247 208 207 196 181 176 143 111 165 254 299 85 191 258 322 308 230 170 196 208 211 188 174 172 168 167 163 156 150 144
234 238 238 226 219 212 206 215 227 227 226 227 210 191 195 181 154 133 72 354 273 183 147 174 175 184 195 187 177 169 185 197 187 201 193 190 195 188 182 169 130 188 158 133 188 238 174 133 110 127 127 138 170 223 220 159 140 232 248 163 168 173 178 177 160 171 225 248 322 26 148 228 298 284 270 162 202 246 236 228 208 190 181 175 168 160 155 149
236 238 241 234 221 218 213 213 224 224 220 220 198 183 175 162 152 123 91 303 264 135 133 167 159 171 173 166 168 162 136 145 147 189 185 183 188 185 201 198 164 173 165 154 209 261 152 164 180 158 138 175 197 216 187 159 154 241 190 116 134 154 160 149 142 177 273 11 286 291 136 213 265 265 315 68 242 257 222 211 214 199 188 179 173 166 160 154
241 242 243 238 229 227 221 215 219 220 209 194 182 178 164 155 146 100 90 244 208 107 117 153 148 156 149 154 173 163 122 131 117 169 171 176 185 179 191 192 158 139 143 170 209 248 127 187 190 156 154 200 202 234 180 169 184 183 132 95 84 79 84 96 115 126 63 76 240 239 180 200 268 277 292 79 254 251 212 199 207 197 190 182 176 172 166 159
247 248 243 236 227 224 220 214 212 205 189 180 177 170 158 150 131 106 204 233 181 99 108 146 156 154 143 142 187 190 126 83 111 141 151 165 178 159 121 145 130 120 57 359 237 236 32 97 179 159 172 174 136 70 106 139 140 138 117 77 64 44 48 58 62 90 72 273 247 234 198 194 259 273 235 201 232 214 165 176 197 192 193 188 181 177 170 163
245 247 240 231 223 218 213 210 206 190 176 175 170 162 155 142 85 174 215 238 67 124 112 143 172 149 154 152 176 176 116 65 136 141 141 146 157 139 121 132 108 90 12 329 293 302 355 107 248 194 161 131 105 68 45 70 115 119 95 92 91 2 15 29 359 49 157 250 257 262 218 188 223 254 240 227 239 199 166 176 180 186 195 191 185 181 174 166
243 243 237 228 223 217 212 211 203 180 171 169 165 161 152 125 229 217 217 59 87 199 144 164 193 165 174 149 113 157 118 111 164 146 141 143 155 173 170 175 158 98 307 232 224 331 272 228 245 160 169 158 121 81 52 40 73 91 92 115 112 343 7 349 291 242 226 242 266 291 196 200 230 247 252 241 230 218 204 189 181 184 190 190 186 182 176 170
239 238 235 229 223 216 211 212 200 180 171 166 164 162 139 184 221 218 212 180 204 202 118 125 128 133 158 138 127 170 117 144 183 155 139 132 153 206 242 213 165 131 191 192 175 187 260 284 195 142 204 193 165 141 141 170 170 155 146 141 137 128 141 253 255 259 258 246 298 299 221 219 261 266 259 244 219 213 211 197 188 187 187 187 185 182 177 174
233 233 232 229 224 214 207 207 198 183 172 166 164 157 146 217 225 202 196 208 228 50 77 104 100 103 146 165 212 180 133 193 178 143 120 128 149 210 236 233 197 116 100 142 171 177 205 276 197 173 191 184 180 174 156 143 150 178 160 137 147 157 173 219 216 214 248 255 307 297 218 188 205 246 275 274 285 250 221 205 192 191 190 187 184 183 182 179
230 231 229 228 224 210 202 202 198 187 175 167 163 165 191 219 230 182 188 197 158 67 54 74 99 115 177 238 264 202 185 217 168 135 152 167 179 199 197 206 200 161 137 163 210 169 182 265 240 239 124 164 174 171 129 115 130 204 123 117 172 187 154 160 195 178 178 280 283 233 224 221 199 221 299 306 306 277 240 220 193 190 192 189 188 188 186 184
226 226 223 225 222 207 197 198 198 193 182 169 165 205 206 221 217 165 182 165 151 143 111 77 94 120 193 235 250 227 227 159 154 155 193 199 221 207 191 206 196 189 179 169 186 161 149 276 288 22 56 152 169 161 127 126 163 152 137 175 214 179 117 113 235 66 79 258 254 191 225 286 315 272 302 8 319 276 257 231 199 189 189 191 193 193 190 188
220 220 218 221 222 209 197 195 197 196 189 178 187 208 213 226 195 168 179 147 145 143 134 186 193 152 186 200 200 207 206 132 160 171 194 199 229 196 191 230 199 195 203 187 193 191 150 257 291 90 130 278 128 117 75 44 120 126 181 205 184 126 93 108 228 351 51 247 267 204 210 227 165 240 294 27 272 248 224 208 194 188 190 196 199 197 194 191
217 215 216 221 224 215 200 194 196 198 194 188 210 210 216 221 191 167 167 144 137 150 165 211 201 170 185 188 192 188 180 181 174 176 187 198 244 189 174 211 198 195 204 195 191 224 148 184 288 34 150 244 88 113 80 20 74 126 181 175 117 144 165 113 179 221 207 244 283 288 232 220 193 204 204 203 223 222 198 186 191 191 195 200 202 200 197 194
215 208 216 222 220 217 204 195 198 200 196 194 214 210 214 209 195 176 172 161 146 170 191 208 194 181 185 174 163 173 181 184 168 172 188 187 232 191 175 194 198 197 201 187 168 214 143 168 259 314 182 181 50 151 173 196 36 62 102 115 86 151 175 161 163 172 185 224 277 296 277 237 225 203 183 196 209 197 176 185 204 203 201 201 201 200 198 196
207 203 224 221 214 213 203 196 200 203 197 210 214 213 207 185 191 186 180 176 171 186 196 200 185 177 176 174 163 165 182 188 172 183 210 189 203 210 193 193 175 188 195 184 178 161 124 177 215 314 334 165 185 219 195 182 168 131 147 166 173 134 127 181 223 120 139 179 216 284 287 258 246 209 184 198 208 187 180 190 202 207 206 204 203 201 199 198
200 203 228 213 209 206 195 192 202 208 207 218 217 226 220 175 163 188 188 190 202 202 181 174 184 178 163 174 190 168 169 185 185 191 218 202 201 222 206 193 162 145 154 170 202 193 151 173 170 150 192 192 228 264 210 184 177 166 180 184 184 178 135 177 246 196 112 185 181 220 272 260 232 206 189 201 210 192 195 197 200 206 207 206 205 204 202 201
196 205 209 197 201 197 188 186 206 206 214 220 217 228 206 167 175 191 192 199 212 219 178 161 174 176 164 169 177 164 163 176 192 195 215 216 208 223 220 194 167 155 151 160 201 182 134 127 135 159 209 214 256 296 101 170 156 145 196 190 174 177 153 179 226 209 137 227 130 122 268 274 252 222 209 225 250 223 208 206 209 211 209 208 207 206 206 205
194 199 186 184 194 191 184 188 213 201 226 229 222 231 206 189 196 184 186 201 200 162 179 193 170 184 195 168 149 164 176 181 192 192 195 218 206 231 248 182 166 159 159 152 161 158 133 125 137 165 310 328 314 311 61 48 83 160 225 174 160 194 184 190 213 152 162 203 133 117 254 263 270 247 246 261 273 264 225 215 215 217 213 211 210 209 210 209
193 187 167 175 187 188 183 190 203 199 223 222 219 227 217 218 202 186 189 197 190 161 167 191 198 188 190 150 152 174 186 189 202 199 191 188 191 139 123 168 168 167 185 198 170 173 178 160 142 143 14 334 317 265 233 307 213 209 214 166 184 188 149 131 114 101 217 203 156 188 243 234 240 288 300 295 270 258 239 224 220 221 217 214 213 213 211 210
183 173 166 176 181 185 188 196 198 199 211 212 216 218 215 227 212 202 202 190 189 186 171 191 189 167 155 157 155 172 187 189 192 188 189 196 191 96 123 167 178 193 236 251 183 171 179 186 163 170 195 203 205 211 206 195 183 204 181 175 198 189 168 167 145 174 229 185 153 207 240 231 244 269 265 262 166 233 239 223 219 222 222 220 219 215 212 210
172 169 182 180 185 193 204 199 195 200 205 208 217 211 209 222 220 205 202 199 201 196 183 175 162 149 157 176 166 176 195 201 162 163 189 197 196 37 131 168 184 211 265 257 187 167 164 230 194 200 212 205 198 198 158 133 146 195 201 187 198 199 186 175 156 202 206 143 190 227 221 234 251 220 217 235 213 225 234 214 212 217 218 222 223 218 214 212
169 175 171 175 193 210 219 199 196 201 202 203 203 196 206 213 214 197 202 205 201 193 185 74 167 178 187 180 177 185 183 178 158 167 181 178 145 42 105 155 172 184 206 239 194 163 130 221 208 212 222 202 147 138 139 140 168 193 197 199 205 196 179 184 208 209 145 132 238 229 134 222 256 223 199 225 221 224 230 215 215 216 215 219 221 219 217 215
176 180 175 177 181 201 212 205 196 196 201 200 195 188 205 209 209 202 202 203 195 191 189 204 199 199 190 175 175 180 170 171 193 190 172 148 137 102 79 88 177 191 166 165 195 140 133 226 219 195 213 189 111 121 138 135 162 187 194 207 207 185 176 194 217 211 157 192 244 227 140 225 254 226 201 214 209 210 214 214 216 218 219 220 219 218 218 217
171 159 175 183 186 208 207 196 184 194 202 193 191 203 206 208 211 203 172 134 191 198 199 208 209 202 192 179 172 175 177 181 196 196 171 151 161 152 137 149 230 210 145 131 188 145 150 231 198 170 221 226 154 157 153 149 183 225 222 223 212 187 183 200 218 218 199 227 256 184 182 235 244 191 202 215 214 215 216 218 220 219 221 222 220 221 222 221
186 177 164 174 172 158 190 177 168 194 205 190 195 207 202 207 208 196 151 172 193 205 211 214 207 193 190 186 182 194 200 191 189 189 171 165 183 184 178 184 164 141 148 158 198 190 195 217 147 148 218 233 159 142 150 176 195 227 244 240 218 181 199 216 224 214 204 243 250 200 221 246 228 181 195 206 205 207 213 219 220 221 224 224 222 224 225 226
189 177 157 162 159 141 173 172 164 185 207 202 199 194 197 210 204 175 120 223 168 167 198 210 202 177 172 190 198 207 194 149 119 144 155 156 170 175 173 167 147 139 159 168 157 176 203 219 100 136 198 211 140 141 151 137 113 252 255 246 204 181 214 219 209 189 196 222 226 216 236 249 209 182 190 193 191 195 210 218 220 226 227 224 225 226 228 230
182 166 152 154 157 165 160 81 144 185 201 191 182 167 184 201 179 153 156 15 57 90 99 103 126 125 130 198 200 144 97 100 90 92 100 80 90 113 107 130 140 141 157 160 137 153 173 162 139 168 186 169 79 142 137 93 61 258 257 235 192 198 205 158 174 207 206 203 202 217 233 224 163 171 186 198 199 206 222 228 229 233 231 227 230 232 235 239